When you browse on this site, cookies collect data to enhance your experience and personalize the content and advertising you see.
Visit our Privacy Policy to learn more. By continuing to use the site, you agree to this use of cookies and data.
EN

Hourly Weather Baloda Bazar

Today, 5 July, Sunday

Time Temperature Precipitation Wind Pressure Humidity
00:00 +30°C° 0.2 mm 4 mps 729 mmHg 73%
01:00 +30°C° 0.2 mm 4 mps 729 mmHg 76%
02:00 +29°C° 0.2 mm 5 mps 728 mmHg 79%
03:00 +29°C° 0.1 mm 4 mps 728 mmHg 80%
04:00 +29°C° 0.1 mm 4 mps 728 mmHg 80%
05:00 +29°C° 0 mm 3 mps 728 mmHg 86%
06:00 +29°C° 0.2 mm 3 mps 728 mmHg 82%
07:00 +30°C° 0.2 mm 3 mps 728 mmHg 79%
08:00 +31°C° 0.2 mm 3 mps 728 mmHg 76%
09:00 +33°C° 0.5 mm 3 mps 728 mmHg 71%
10:00 +34°C° 0.5 mm 4 mps 728 mmHg 67%
11:00 +34°C° 0 mm 5 mps 729 mmHg 63%
12:00 +34°C° 0.2 mm 5 mps 728 mmHg 63%
13:00 +34°C° 0.2 mm 5 mps 728 mmHg 62%
14:00 +34°C° 0.2 mm 5 mps 727 mmHg 62%
15:00 +34°C° 0.5 mm 4 mps 727 mmHg 63%
16:00 +34°C° 0.5 mm 4 mps 727 mmHg 64%
17:00 +28°C° 0 mm 4 mps 727 mmHg 89%
18:00 +28°C° 0.8 mm 4 mps 727 mmHg 89%
19:00 +28°C° 0.8 mm 4 mps 728 mmHg 88%
20:00 +28°C° 0.8 mm 4 mps 728 mmHg 88%
21:00 +28°C° 0.4 mm 4 mps 728 mmHg 86%
22:00 +28°C° 0.4 mm 4 mps 728 mmHg 84%
23:00 +28°C° 0.4 mm 3 mps 728 mmHg 82%

Tomorrow, 6 July, Monday

Time Temperature Precipitation Wind Pressure Humidity
00:00 +28°C° 0.5 mm 3 mps 728 mmHg 82%
01:00 +28°C° 0.5 mm 3 mps 727 mmHg 82%
02:00 +28°C° 0.5 mm 2 mps 727 mmHg 83%
03:00 +28°C° 0.5 mm 3 mps 727 mmHg 84%
04:00 +28°C° 0.5 mm 3 mps 727 mmHg 85%
05:00 +28°C° 0.5 mm 3 mps 727 mmHg 86%
06:00 +28°C° 0.5 mm 3 mps 728 mmHg 86%
07:00 +28°C° 0.5 mm 3 mps 728 mmHg 85%
08:00 +28°C° 0.5 mm 3 mps 728 mmHg 84%
09:00 +28°C° 0.6 mm 3 mps 728 mmHg 83%
10:00 +29°C° 0.6 mm 3 mps 728 mmHg 81%
11:00 +29°C° 0.6 mm 3 mps 728 mmHg 80%
12:00 +30°C° 0.3 mm 3 mps 728 mmHg 76%
13:00 +31°C° 0.3 mm 3 mps 727 mmHg 73%
14:00 +32°C° 0.3 mm 4 mps 727 mmHg 69%
15:00 +32°C° 0 mm 4 mps 727 mmHg 70%
16:00 +32°C° 0 mm 5 mps 727 mmHg 71%
17:00 +32°C° 0 mm 5 mps 726 mmHg 72%
18:00 +30°C° 0.1 mm 5 mps 727 mmHg 74%
19:00 +30°C° 0.1 mm 5 mps 728 mmHg 77%
20:00 +29°C° 0.1 mm 5 mps 729 mmHg 79%
21:00 +29°C° 0.1 mm 6 mps 729 mmHg 80%
22:00 +29°C° 0.1 mm 6 mps 729 mmHg 81%
23:00 +28°C° 0.1 mm 6 mps 729 mmHg 82%

Day after tomorrow, 7 July, Tuesday

Time Temperature Precipitation Wind Pressure Humidity
00:00 +28°C° 0 mm 6 mps 729 mmHg 82%
01:00 +28°C° 0 mm 6 mps 729 mmHg 82%
02:00 +28°C° 0 mm 6 mps 728 mmHg 82%
03:00 +28°C° 0 mm 5 mps 729 mmHg 81%
04:00 +28°C° 0 mm 5 mps 729 mmHg 81%
05:00 +28°C° 0 mm 5 mps 729 mmHg 81%
06:00 +28°C° 0 mm 5 mps 730 mmHg 79%
07:00 +29°C° 0 mm 5 mps 730 mmHg 77%
08:00 +29°C° 0 mm 5 mps 731 mmHg 76%
09:00 +30°C° 0 mm 5 mps 731 mmHg 74%
10:00 +30°C° 0 mm 6 mps 731 mmHg 71%
11:00 +32°C° 0 mm 6 mps 731 mmHg 69%
12:00 +32°C° 0 mm 6 mps 731 mmHg 66%
13:00 +33°C° 0 mm 6 mps 730 mmHg 64%
14:00 +34°C° 0 mm 6 mps 730 mmHg 61%
15:00 +34°C° 0 mm 6 mps 730 mmHg 60%
16:00 +34°C° 0 mm 6 mps 730 mmHg 59%
17:00 +34°C° 0 mm 6 mps 730 mmHg 58%
18:00 +33°C° 0 mm 6 mps 730 mmHg 61%
19:00 +33°C° 0 mm 5 mps 731 mmHg 64%
20:00 +32°C° 0 mm 5 mps 731 mmHg 68%
21:00 +30°C° 0 mm 4 mps 731 mmHg 70%
22:00 +30°C° 0 mm 4 mps 732 mmHg 72%
23:00 +30°C° 0 mm 4 mps 732 mmHg 74%

8 July, Wednesday

Time Temperature Precipitation Wind Pressure Humidity
00:00 +29°C° 0 mm 4 mps 731 mmHg 75%
01:00 +29°C° 0 mm 4 mps 731 mmHg 76%
02:00 +29°C° 0 mm 4 mps 731 mmHg 78%
03:00 +29°C° 0 mm 3 mps 731 mmHg 78%
04:00 +28°C° 0 mm 3 mps 731 mmHg 79%
05:00 +28°C° 0 mm 3 mps 731 mmHg 80%
06:00 +29°C° 0 mm 3 mps 731 mmHg 75%
07:00 +32°C° 0 mm 4 mps 732 mmHg 70%
08:00 +33°C° 0 mm 5 mps 732 mmHg 65%
09:00 +34°C° 0 mm 5 mps 732 mmHg 61%
10:00 +35°C° 0 mm 5 mps 732 mmHg 57%
11:00 +36°C° 0 mm 5 mps 732 mmHg 53%
12:00 +37°C° 0 mm 5 mps 731 mmHg 50%
13:00 +38°C° 0 mm 4 mps 730 mmHg 48%
14:00 +38°C° 0 mm 4 mps 730 mmHg 45%
15:00 +38°C° 0 mm 4 mps 730 mmHg 47%
16:00 +39°C° 0 mm 5 mps 730 mmHg 48%
17:00 +37°C° 0 mm 5 mps 729 mmHg 49%
18:00 +36°C° 0.2 mm 5 mps 730 mmHg 53%
19:00 +35°C° 0.2 mm 5 mps 730 mmHg 56%
20:00 +34°C° 0.2 mm 5 mps 731 mmHg 60%
21:00 +34°C° 0.1 mm 5 mps 731 mmHg 62%
22:00 +34°C° 0.1 mm 4 mps 731 mmHg 63%
23:00 +33°C° 0.1 mm 4 mps 731 mmHg 65%

9 July, Thursday

Time Temperature Precipitation Wind Pressure Humidity
00:00 +33°C° 0.4 mm 4 mps 730 mmHg 67%
01:00 +32°C° 0.4 mm 4 mps 730 mmHg 68%
02:00 +32°C° 0.4 mm 5 mps 729 mmHg 70%
03:00 +32°C° 0.5 mm 4 mps 730 mmHg 71%
04:00 +30°C° 0.5 mm 4 mps 730 mmHg 73%
05:00 +30°C° 0.5 mm 4 mps 730 mmHg 74%
06:00 +32°C° 0 mm 4 mps 730 mmHg 70%
07:00 +33°C° 0 mm 5 mps 730 mmHg 65%
08:00 +34°C° 0 mm 5 mps 731 mmHg 61%
09:00 +35°C° 0 mm 5 mps 730 mmHg 56%
10:00 +37°C° 0 mm 5 mps 730 mmHg 52%
11:00 +38°C° 0 mm 4 mps 730 mmHg 48%
12:00 +38°C° 0 mm 4 mps 729 mmHg 46%
13:00 +40°C° 0 mm 4 mps 729 mmHg 44%
14:00 +40°C° 0 mm 4 mps 728 mmHg 42%
15:00 +40°C° 0 mm 4 mps 728 mmHg 43%
16:00 +40°C° 0 mm 4 mps 728 mmHg 44%
17:00 +38°C° 0 mm 4 mps 728 mmHg 45%
18:00 +37°C° 0.1 mm 4 mps 728 mmHg 48%
19:00 +37°C° 0.1 mm 4 mps 729 mmHg 51%
20:00 +36°C° 0.1 mm 4 mps 729 mmHg 54%
21:00 +35°C° 0.6 mm 4 mps 729 mmHg 56%
22:00 +35°C° 0.6 mm 4 mps 729 mmHg 59%
23:00 +34°C° 0.6 mm 4 mps 730 mmHg 62%

10 July, Friday

Time Temperature Precipitation Wind Pressure Humidity
00:00 +34°C° 0 mm 4 mps 729 mmHg 63%
01:00 +33°C° 0 mm 4 mps 729 mmHg 64%
02:00 +33°C° 0 mm 4 mps 728 mmHg 66%
03:00 +33°C° 0 mm 4 mps 728 mmHg 67%
04:00 +31°C° 0 mm 3 mps 729 mmHg 68%
05:00 +31°C° 0 mm 3 mps 729 mmHg 69%
06:00 +33°C° 0 mm 4 mps 729 mmHg 66%
07:00 +33°C° 0 mm 4 mps 729 mmHg 62%
08:00 +34°C° 0 mm 4 mps 730 mmHg 59%
09:00 +36°C° 0.1 mm 4 mps 730 mmHg 55%
10:00 +37°C° 0.1 mm 4 mps 730 mmHg 50%
11:00 +39°C° 0.1 mm 5 mps 730 mmHg 46%
12:00 +39°C° 0 mm 5 mps 729 mmHg 45%
13:00 +40°C° 0 mm 5 mps 729 mmHg 44%
14:00 +40°C° 0 mm 5 mps 728 mmHg 42%
15:00 +40°C° 0 mm 5 mps 728 mmHg 43%
16:00 +39°C° 0 mm 5 mps 728 mmHg 43%
17:00 +39°C° 0 mm 5 mps 728 mmHg 43%
18:00 +37°C° 0 mm 5 mps 728 mmHg 46%
19:00 +37°C° 0 mm 4 mps 729 mmHg 49%
20:00 +36°C° 0 mm 4 mps 729 mmHg 52%
21:00 +35°C° 0 mm 4 mps 729 mmHg 54%
22:00 +35°C° 0 mm 3 mps 729 mmHg 56%
23:00 +34°C° 0 mm 3 mps 729 mmHg 58%
Show more